[[{"header":{"parameterUnit":"m.s-1","parameterCategory":1,"la1":30.2991,"la2":30.254,"lo1":-89.0895,"lo2":-89.0444,"dy":0.0017,"dx":0.0017,"nx":28,"ny":28,"refTime":"2023-09-25T09:00:00:Z","depth":0,"parameterNumber":2,"parameterNumberName":"U-component_of_WINDS"},"data":[0,0,0,0,0,0,0,0,0,0,0,0,0,0,0,0,0,0,0,0,0,0,0,0,0,0,0,0,0,0,0,0,0,0,0,0,0,0,0,0,0,0,0,0,0,0,0,0,0,0,0,0,0,0,0,0,0,0,-4.4381,-4.4381,0,-4.4409,-4.441,-4.441,-4.4332,-4.4329,-4.4327,-4.4325,-4.4349,-4.4352,-4.4355,0,0,0,0,0,0,0,0,0,0,0,0,0,-4.4256,-4.4259,-4.4381,-4.4381,-4.4382,-4.4409,-4.441,-4.441,-4.4332,-4.4329,-4.4326,-4.4324,-4.4348,-4.4352,-4.4355,0,0,0,0,0,0,0,0,0,0,0,0,0,-4.43,-4.4259,-4.4381,-4.4346,-4.4344,-4.4409,-4.441,-4.441,-4.4333,-4.4329,-4.4326,-4.4322,-4.4347,-4.4352,-4.4356,-4.4455,0,0,-4.4369,-4.4371,0,0,0,0,0,0,0,0,-4.4297,-4.4304,-4.4351,-4.4349,-4.4346,-4.4363,-4.4374,-4.4425,-4.4334,-4.4337,-4.4325,-4.4321,-4.4357,-4.436,-4.4373,-4.4456,-4.4457,-4.4369,-4.4372,-4.4374,-4.4375,0,0,0,0,0,0,0,-4.4294,-4.4303,-4.4392,-4.4352,-4.4349,-4.4328,-4.433,-4.4384,-4.4366,-4.4336,-4.4331,-4.4335,-4.4355,-4.4369,-4.4373,-4.4457,-4.4369,-4.4373,-4.4376,-4.4378,-4.4621,-4.4625,0,0,0,0,0,0,-4.4296,-4.4301,-4.4391,-4.4393,-4.4312,-4.4333,-4.4336,-4.4361,-4.4366,-4.4363,-4.4338,-4.4332,-4.4363,-4.4368,-4.4374,-4.4488,-4.4374,-4.4378,-4.4381,-4.4617,-4.4622,-4.4626,0,0,0,0,0,0,-4.4294,-4.4305,-4.439,-4.4345,-4.4355,-4.4339,-4.4369,-4.4364,-4.4378,-4.4367,-4.4364,-4.4357,-4.4361,-4.4368,-4.4435,-4.4488,-4.438,-4.4384,-4.4613,-4.4619,-4.4624,-4.4718,0,0,0,0,0,0,-4.4291,-4.4305,-4.4343,-4.4347,-4.4357,-4.4452,-4.4372,-4.4367,-4.4386,-4.4378,-4.4383,-4.4381,-4.4359,-4.4429,-4.4439,-4.4492,-4.4387,-4.4608,-4.4615,-4.4622,-4.471,-4.4727,-4.474,0,0,0,0,0,-4.4287,-4.4368,-4.4345,-4.4357,-4.4405,-4.4456,-4.4461,-4.4435,-4.4391,-4.4428,-4.4422,-4.4381,-4.4481,-4.4437,-4.4448,-4.4502,-4.4604,-4.4613,-4.4622,-4.4703,-4.4723,-4.474,0,0,0,0,0,0,-4.4369,-4.4368,-4.4343,-4.4428,-4.4443,-4.4442,-4.4488,-4.4457,-4.4483,-4.4474,-4.4439,-4.4441,-4.4514,-4.4515,-4.4466,-4.4597,-4.4535,-4.4546,-4.4593,-4.4612,-4.4627,-4.4624,-4.4391,0,0,0,0,0,-4.4397,-4.444,-4.4436,-4.4512,-4.4521,-4.4504,-4.4525,-4.4504,-4.4517,-4.4522,-4.452,-4.4533,-4.4567,-4.459,-4.4621,-4.4711,-4.471,-4.4754,-4.4769,-4.4782,-4.4791,-4.4837,-4.4855,-4.4655,-4.4654,-4.4654,0,0,-4.4455,-4.446,-4.4489,-4.4528,-4.4537,-4.458,-4.4509,-4.4558,-4.4589,-4.4529,-4.4592,-4.4592,-4.4604,-4.4683,-4.4717,-4.4685,-4.4847,-4.4793,-4.4803,-4.4805,-4.4847,-4.4866,-4.4883,-4.466,-4.4659,-4.4658,0,0,-4.4583,-4.4592,-4.4655,-4.4666,-4.4681,-4.467,-4.4685,-4.469,-4.4688,-4.4751,-4.4707,-4.4743,-4.4803,-4.4813,-4.4826,-4.496,-4.4922,-4.4971,-4.5048,-4.5094,-4.5109,-4.5123,-4.5168,-4.5185,-4.4981,-4.4981,-4.4981,0,-4.4653,-4.4717,-4.4691,-4.4743,-4.4761,-4.4711,-4.4773,-4.4785,-4.4809,-4.4821,-4.4787,-4.4861,-4.4866,-4.4945,-4.4978,-4.4992,-4.5006,-4.4968,-4.511,-4.5123,-4.5135,-4.5178,-4.5195,-4.4987,-4.4986,-4.4986,-4.4985,0,-4.4801,-4.4847,-4.4896,-4.4922,-4.4945,-4.5003,-4.4984,-4.5011,-4.4988,-4.498,-4.5045,-4.505,-4.508,-4.5098,-4.5076,-4.5175,-4.5154,-4.5116,-4.5051,-4.5161,-4.52,-4.5216,-4.4995,-4.4993,-4.4991,-4.499,0,0,-4.4978,-4.4991,-4.5009,-4.5019,-4.5033,-4.5067,-4.5122,-4.5153,-4.5176,-4.5195,-4.5238,-4.5291,-4.5255,-4.527,-4.5249,-4.5289,-4.5392,-4.5245,-4.5244,-4.5269,-4.5498,-4.5525,-4.5544,-4.5369,-4.5372,-4.5374,-4.5496,0,-4.5102,-4.5197,-4.5175,-4.5268,-4.5308,-4.5263,-4.531,-4.5323,-4.5317,-4.535,-4.5343,-4.538,-4.5331,-4.534,-4.5378,-4.5371,-4.5436,-4.5363,-4.5406,-4.5408,-4.5401,-4.5565,-4.5594,-4.5708,-4.5511,-4.5514,-4.5516,0,-4.5258,-4.5284,-4.5381,-4.5388,-4.5404,-4.5447,-4.5474,-4.5507,-4.552,-4.5513,-4.5531,-4.5502,-4.5555,-4.5494,-4.5564,-4.5514,-4.5531,-4.5531,-4.5535,-4.5535,-4.5466,-4.5567,-4.5744,-4.576,-4.554,-4.5538,-4.5536,0,-4.5374,-4.5434,-4.5499,-4.551,-4.552,-4.5551,-4.5557,-4.5567,-4.5587,-4.5611,-4.5623,-4.5652,-4.5667,-4.569,-4.5669,-4.5627,-4.5743,-4.568,-4.5736,-4.5737,-4.5759,-4.5757,-4.5939,-4.5776,-4.5776,-4.5776,-4.5775,0,-4.5512,-4.5573,-4.5551,-4.5591,-4.5657,-4.5632,-4.5698,-4.5698,-4.5707,-4.5745,-4.5708,-4.5744,-4.5716,-4.575,-4.5735,-4.5794,-4.5802,-4.5796,-4.5791,-4.5798,-4.5798,-4.5805,-4.5796,-4.578,-4.5779,-4.5778,-4.5778,0,-4.5651,-4.564,-4.5707,-4.5713,-4.5715,-4.5763,-4.5767,-4.5803,-4.5796,-4.5844,-4.5854,-4.5842,-4.588,-4.5863,-4.5902,-4.5891,-4.5967,-4.5953,-4.5963,-4.5958,-4.6014,-4.6008,-4.6204,-4.6227,-4.6053,-4.6054,-4.6056,0,-4.5739,-4.5784,-4.5795,-4.5818,-4.5827,-4.5865,-4.5886,-4.5864,-4.5886,-4.5906,-4.5939,-4.5974,-4.6,-4.6062,-4.6055,-4.6085,-4.6069,-4.6136,-4.6073,-4.6078,-4.6066,-4.6063,-4.6066,-4.6147,-4.6149,-4.6151,-4.6152,0,-4.5894,-4.5886,-4.5918,-4.5949,-4.5975,-4.5998,-4.6017,-4.6038,-4.6016,-4.6044,-4.6083,-4.6103,-4.6144,-4.6178,-4.6204,-4.6208,-4.6176,-4.6173,-4.6187,-4.6193,-4.6195,-4.6192,-4.5994,-4.6167,-4.6166,-4.6165,-4.6164,-4.6163,-4.6008,-4.6045,-4.6059,-4.6096,-4.6108,-4.6127,-4.6161,-4.6159,-4.6192,-4.6223,-4.6209,-4.6253,-4.6265,-4.6297,-4.6305,-4.6339,-4.6312,-4.6333,-4.6337,-4.6342,-4.6348,-4.6193,-4.6344,-4.6343,-4.6343,-4.6342,-4.6342,0,-4.6158,-4.6165,-4.62,-4.6228,-4.6257,-4.6228,-4.6248,-4.6273,-4.6313,-4.6328,-4.6355,-4.6399,-4.6432,-4.6429,-4.646,-4.6487,-4.6473,-4.6495,-4.6491,-4.6492,-4.6372,-4.6355,-4.6506,-4.6506,-4.6506,-4.6506,-4.6505,-4.6505,-4.624,-4.6302,-4.6296,-4.6364,-4.637,-4.6414,-4.6427,-4.6444,-4.6456,-4.6507,-4.6535,-4.6534,-4.6541,-4.6571,-4.66,-4.6598,-4.661,-4.6637,-4.663,-4.6517,-4.6501,-4.6485,-4.6469,-4.6641,-4.6641,-4.6746,-4.6747,-4.6748]},{"header":{"parameterUnit":"m.s-1","parameterCategory":1,"la1":30.2991,"la2":30.254,"lo1":-89.0895,"lo2":-89.0444,"dy":0.0017,"dx":0.0017,"nx":28,"ny":28,"refTime":"2023-09-25T09:00:00:Z","depth":0,"parameterNumber":3,"parameterNumberName":"V-component_of_WINDS"},"data":[0,0,0,0,0,0,0,0,0,0,0,0,0,0,0,0,0,0,0,0,0,0,0,0,0,0,0,0,0,0,0,0,0,0,0,0,0,0,0,0,0,0,0,0,0,0,0,0,0,0,0,0,0,0,0,0,0,0,1.9371,1.9372,0,1.9479,1.9481,1.9482,1.947,1.9468,1.9466,1.9465,1.9575,1.9579,1.9583,0,0,0,0,0,0,0,0,0,0,0,0,0,1.9153,1.9158,1.9371,1.9372,1.9374,1.9479,1.9481,1.9482,1.947,1.9468,1.9466,1.9464,1.9573,1.9578,1.9584,0,0,0,0,0,0,0,0,0,0,0,0,0,1.9253,1.9159,1.9371,1.938,1.9382,1.9479,1.9481,1.9482,1.9471,1.9468,1.9465,1.9463,1.9571,1.9578,1.9585,1.9678,0,0,1.9605,1.9608,0,0,0,0,0,0,0,0,1.9248,1.9261,1.9378,1.938,1.9382,1.9458,1.9444,1.9548,1.9471,1.9437,1.9465,1.9462,1.9538,1.9547,1.9573,1.9683,1.9688,1.9606,1.961,1.9613,1.9615,0,0,0,0,0,0,0,1.9241,1.9257,1.9414,1.9379,1.9382,1.9379,1.9391,1.9464,1.9501,1.944,1.9439,1.9452,1.9539,1.9567,1.9576,1.9689,1.9606,1.9612,1.9616,1.9619,1.9883,1.9886,0,0,0,0,0,0,1.9232,1.9251,1.941,1.9417,1.9307,1.9385,1.9398,1.9437,1.95,1.9507,1.9454,1.9451,1.9556,1.9568,1.958,1.9694,1.9613,1.9619,1.9623,1.988,1.9884,1.9887,0,0,0,0,0,0,1.9227,1.9246,1.9406,1.9334,1.9354,1.9392,1.9435,1.944,1.9468,1.9511,1.9517,1.9476,1.9555,1.957,1.9654,1.9698,1.9622,1.9628,1.9877,1.9881,1.9885,1.9924,0,0,0,0,0,0,1.9221,1.9244,1.928,1.9335,1.9358,1.9479,1.9438,1.9444,1.948,1.9477,1.9533,1.954,1.9554,1.9644,1.9661,1.9706,1.9634,1.9873,1.9879,1.9884,1.9919,1.9929,1.9938,0,0,0,0,0,1.9213,1.9286,1.9282,1.9301,1.9404,1.9481,1.9495,1.951,1.9483,1.952,1.9548,1.9538,1.969,1.9653,1.9672,1.9719,1.987,1.9877,1.9884,1.9915,1.9927,1.9938,0,0,0,0,0,0,1.9235,1.9293,1.929,1.9382,1.9427,1.9479,1.9526,1.9522,1.9575,1.957,1.9586,1.9599,1.9684,1.971,1.9667,1.9814,1.9777,1.9788,1.9794,1.9806,1.9815,1.9808,1.9639,0,0,0,0,0,1.9251,1.9309,1.9357,1.9434,1.9457,1.9488,1.9522,1.953,1.9577,1.9595,1.9629,1.9675,1.9733,1.9771,1.9827,1.9922,1.9935,1.9965,1.9974,1.9982,1.9991,2.0045,2.0059,1.9909,1.9909,1.9909,0,0,1.9283,1.9323,1.9358,1.944,1.9475,1.9536,1.9503,1.9568,1.9613,1.9605,1.9687,1.9713,1.9765,1.9856,1.9898,1.988,2.0035,1.999,1.9996,2.0001,2.0054,2.0068,2.008,1.9913,1.9913,1.9912,0,0,1.9375,1.941,1.9479,1.9515,1.957,1.959,1.9607,1.966,1.9677,1.976,1.9755,1.9809,1.9909,1.9946,1.9979,2.0086,2.0079,2.0103,2.0153,2.0206,2.0217,2.0228,2.0267,2.0281,2.0112,2.0112,2.0112,0,1.9408,1.9499,1.9514,1.9581,1.9617,1.9613,1.9683,1.9718,1.9788,1.9813,1.9793,1.9919,1.9953,2.0054,2.008,2.0106,2.0126,2.0097,2.0215,2.0225,2.0236,2.0273,2.0288,2.0115,2.0115,2.0114,2.0114,0,1.9539,1.9602,1.9652,1.972,1.9762,1.983,1.9855,1.9896,1.99,1.9923,2.0008,2.0049,2.0114,2.0138,2.0143,2.024,2.0228,2.0211,2.0174,2.0252,2.0288,2.0303,2.0119,2.0118,2.0117,2.0116,0,0,1.9647,1.9724,1.9742,1.9773,1.9834,1.9883,1.9951,2.0015,2.005,2.0099,2.0157,2.0242,2.0227,2.0264,2.0273,2.0319,2.0403,2.0296,2.0298,2.0316,2.0514,2.0527,2.0543,2.0398,2.0401,2.0403,2.051,0,1.9744,1.9865,1.9882,1.9989,2.0048,2.0046,2.0105,2.0149,2.0172,2.0225,2.025,2.0311,2.0286,2.0309,2.0354,2.0383,2.0443,2.0375,2.0453,2.0456,2.0441,2.0562,2.0575,2.0674,2.0524,2.0526,2.0528,0,1.9875,1.9928,2.0041,2.0095,2.0121,2.0174,2.0235,2.0286,2.0336,2.0349,2.0391,2.0395,2.0466,2.0426,2.0524,2.0478,2.0511,2.053,2.0534,2.0542,2.0497,2.0574,2.0705,2.072,2.055,2.0548,2.0546,0,1.9943,2.0043,2.0125,2.0152,2.0216,2.0254,2.0282,2.0329,2.0368,2.0421,2.0446,2.0506,2.0539,2.0586,2.0606,2.0575,2.0704,2.0665,2.0718,2.0718,2.0746,2.0744,2.0885,2.0766,2.0765,2.0765,2.0765,0,2.0052,2.0121,2.0157,2.0207,2.0285,2.0303,2.038,2.0407,2.0449,2.0505,2.0506,2.0558,2.0581,2.0637,2.0653,2.0733,2.0748,2.0761,2.0765,2.0762,2.076,2.0784,2.0778,2.0769,2.0768,2.0767,2.0767,0,2.0142,2.0168,2.0256,2.0311,2.0326,2.0381,2.0428,2.0477,2.0499,2.057,2.0587,2.0623,2.0689,2.0713,2.0793,2.0804,2.0897,2.0895,2.0881,2.0882,2.0934,2.0929,2.1096,2.1119,2.0983,2.0984,2.0985,0,2.0209,2.0263,2.0324,2.0361,2.0391,2.0452,2.0491,2.0511,2.0551,2.0613,2.0655,2.0721,2.0774,2.088,2.0913,2.0975,2.0974,2.1029,2.0984,2.0979,2.0977,2.0974,2.098,2.1037,2.1038,2.104,2.104,0,2.0328,2.0338,2.0395,2.0457,2.0504,2.0553,2.0601,2.0631,2.0659,2.0705,2.0772,2.0814,2.0897,2.0962,2.1026,2.1055,2.1053,2.1054,2.107,2.1068,2.1058,2.1066,2.0905,2.1051,2.105,2.1049,2.1048,2.1048,2.0409,2.0458,2.0508,2.0572,2.061,2.0655,2.0704,2.0733,2.079,2.086,2.0868,2.0941,2.0991,2.1076,2.1108,2.1166,2.1152,2.1174,2.118,2.1185,2.119,2.1048,2.1178,2.1177,2.1177,2.1177,2.1177,0,2.0529,2.0561,2.0619,2.0687,2.0737,2.0731,2.0784,2.0826,2.0891,2.0938,2.0991,2.107,2.1134,2.1172,2.1237,2.1276,2.1277,2.1292,2.129,2.1297,2.1198,2.1179,2.1291,2.1291,2.1291,2.1291,2.1291,2.1291,2.0597,2.0679,2.0695,2.0797,2.0829,2.0901,2.0932,2.0974,2.1011,2.1099,2.1153,2.1178,2.1222,2.129,2.1349,2.1358,2.1383,2.14,2.1408,2.1316,2.1304,2.1293,2.1275,2.1405,2.1405,2.1503,2.1504,2.1504]}]]